Date String (YYYY-MM-DD hh:mm:ss) UTC,Instrument flags,absolute air pressure of the measurement (hPa),sample flow rate (lpm),inlet stack bypass flow (lpm),air temperature of the measurement (°C),ambient temperature measured by the external sensor (°C),aerosol sample conditioner tube jacket temperature (°C),OPC LED temperature (°C),internal box temperature (°C),relative humidity of the measurement (%),span deviation,mass concentration of particles derived from Lorenz-Mie calculation of OPC scattering (μg/m³),mass concentration of particles derived from Lorenz-Mie calculation of OPC scattering (μg/m³),mass concentration of particles derived from Lorenz-Mie calculation of OPC scattering (μg/m³)
DateTimeUTC,F1_M11,P_M11,Q1_M11,Q2_M11,T1_M11,T2_M11,T3_M11,T4_M11,T5_M11,U1_M11,ZSPAN_M11,X2_M11,X0_M11,X1_M11
2023-11-30 16:00:00,SystemResetWarning,0823.8,5.00,000.00,019.6,018.9,000.0,027.8,020.8,12.7,0000.0,0004.35,0007.05,0003.96
2023-11-30 16:01:00,SystemResetWarning,0823.8,4.99,000.00,019.6,018.9,000.0,027.8,020.8,12.8,0000.0,0004.35,0007.10,0003.97
2023-11-30 16:02:00,SystemResetWarning,0823.8,4.99,000.00,019.6,018.9,000.0,027.8,020.8,12.8,0000.0,0004.36,0007.09,0003.98
2023-11-30 16:03:00,SystemResetWarning,0823.8,5.00,000.00,019.6,018.9,000.0,027.8,020.8,12.6,0000.0,0004.39,0007.18,0004.00
2023-11-30 16:04:00,SystemResetWarning,0823.9,4.99,000.00,019.6,018.9,000.0,027.8,020.8,12.3,0000.0,0004.42,0007.31,0004.02
2023-11-30 16:05:00,SystemResetWarning,0823.8,5.00,000.00,019.6,018.9,000.0,027.8,020.8,12.3,0000.0,0004.42,0007.61,0004.02
2023-11-30 16:06:00,SystemResetWarning,0823.9,5.01,000.00,019.6,018.9,000.0,027.8,020.9,12.4,0000.0,0004.44,0008.05,0004.02
2023-11-30 16:07:00,SystemResetWarning,0823.9,5.00,000.00,019.6,018.9,000.0,027.8,020.9,12.3,0000.0,0004.46,0008.56,0004.04
2023-11-30 16:08:00,SystemResetWarning,0823.9,5.00,000.00,019.6,018.9,000.0,027.9,020.9,12.4,0000.0,0004.47,0008.66,0004.05
2023-11-30 16:09:00,SystemResetWarning,0823.9,4.98,000.00,019.6,018.9,000.0,027.9,020.9,12.4,0000.0,0004.46,0009.01,0004.06
2023-11-30 16:10:00,SystemResetWarning,0823.9,4.99,000.00,019.7,018.9,000.0,027.9,020.9,12.2,0000.0,0004.46,0008.96,0004.07
2023-11-30 16:11:00,SystemResetWarning,0823.9,5.00,000.00,019.7,018.9,000.0,027.9,020.9,12.4,0000.0,0004.47,0008.96,0004.08
2023-11-30 16:12:00,SystemResetWarning,0824.0,5.01,000.00,019.7,019.0,000.0,027.9,020.9,12.5,0000.0,0004.48,0008.91,0004.10
2023-11-30 16:13:00,SystemResetWarning,0824.0,5.01,000.00,019.7,019.0,000.0,027.9,020.9,12.5,0000.0,0004.52,0009.00,0004.10
2023-11-30 16:14:00,SystemResetWarning,0824.0,5.00,000.00,019.7,019.0,000.0,027.9,020.9,12.5,0000.0,0004.51,0009.00,0004.10
2023-11-30 16:15:00,SystemResetWarning,0824.0,4.99,000.00,019.7,019.0,000.0,027.9,020.9,12.4,0000.0,0004.49,0008.96,0004.10
2023-11-30 16:16:00,SystemResetWarning,0824.0,5.00,000.00,019.7,019.0,000.0,027.9,020.9,12.5,0000.0,0004.48,0008.68,0004.11
2023-11-30 16:17:00,SystemResetWarning,0824.0,4.99,000.00,019.7,019.0,000.0,027.9,020.9,12.4,0000.0,0004.47,0009.25,0004.11
2023-11-30 16:18:00,SystemResetWarning,0824.0,5.01,000.00,019.7,019.0,000.0,027.9,020.9,12.5,0000.0,0004.45,0009.53,0004.10
2023-11-30 16:19:00,SystemResetWarning,0824.0,5.00,000.00,019.7,019.0,000.0,027.9,020.9,12.6,0000.0,0004.44,0009.84,0004.09
2023-11-30 16:20:00,SystemResetWarning,0824.0,5.00,000.00,019.7,019.0,000.0,028.0,020.9,12.7,0000.0,0004.45,0009.96,0004.07
2023-11-30 16:21:00,SystemResetWarning,0824.0,5.00,000.00,019.7,019.0,000.0,028.0,021.0,12.4,0000.0,0004.45,0009.93,0004.06
2023-11-30 16:22:00,SystemResetWarning,0824.0,4.99,000.00,019.7,019.0,000.0,028.0,021.0,12.3,0000.0,0004.43,0009.98,0004.04
2023-11-30 16:23:00,SystemResetWarning,0824.0,4.99,000.00,019.7,019.0,000.0,028.0,021.0,12.4,0000.0,0004.41,0009.94,0004.02
2023-11-30 16:24:00,SystemResetWarning,0824.0,5.00,000.00,019.7,019.0,000.0,028.0,020.9,12.2,0000.0,0004.37,0009.88,0004.01
2023-11-30 16:25:00,SystemResetWarning,0824.0,5.00,000.00,019.7,019.0,000.0,028.0,020.9,12.3,0000.0,0004.37,0009.96,0004.00
2023-11-30 16:26:00,SystemResetWarning,0824.1,5.01,000.00,019.7,019.0,000.0,028.0,021.0,12.2,0000.0,0004.36,0010.00,0003.98
2023-11-30 16:27:00,SystemResetWarning,0824.1,5.01,000.00,019.7,019.0,000.0,028.0,021.0,12.3,0000.0,0004.35,0010.17,0003.97
2023-11-30 16:28:00,SystemResetWarning,0824.2,5.00,000.00,019.7,019.0,000.0,028.0,020.9,12.5,0000.0,0004.34,0009.67,0003.96
2023-11-30 16:29:00,SystemResetWarning,0824.2,4.99,000.00,019.7,019.0,000.0,028.0,021.0,12.3,0000.0,0004.33,0008.73,0003.95
2023-11-30 16:30:00,SystemResetWarning,0824.2,4.99,000.00,019.7,019.0,000.0,028.0,021.0,12.0,0000.0,0004.33,0008.16,0003.96
2023-11-30 16:31:00,SystemResetWarning,0824.1,5.00,000.00,019.7,019.0,000.0,028.0,021.0,12.3,0000.0,0004.33,0008.08,0003.96
2023-11-30 16:32:00,SystemResetWarning,0824.1,5.02,000.00,019.7,019.0,000.0,028.0,021.0,12.4,0000.0,0004.31,0008.12,0003.97
2023-11-30 16:33:00,SystemResetWarning,0824.1,5.00,000.00,019.8,019.0,000.0,028.0,021.0,12.9,0000.0,0004.30,0008.03,0003.96
2023-11-30 16:34:00,SystemResetWarning,0824.1,4.99,000.00,019.8,019.0,000.0,028.0,021.0,13.1,0000.0,0004.32,0008.12,0003.96
2023-11-30 16:35:00,SystemResetWarning,0824.2,4.99,000.00,019.8,019.0,000.0,028.0,020.9,13.3,0000.0,0004.30,0008.28,0003.96
2023-11-30 16:36:00,SystemResetWarning,0824.2,5.01,000.00,019.8,019.0,000.0,028.0,020.9,13.3,0000.0,0004.33,0008.36,0003.98
2023-11-30 16:37:00,SystemResetWarning,0824.2,5.01,000.00,019.8,019.0,000.0,028.0,021.0,13.0,0000.0,0004.37,0008.78,0003.98
2023-11-30 16:38:00,SystemResetWarning,0824.3,5.00,000.00,019.8,019.0,000.0,028.0,021.0,12.9,0000.0,0004.39,0008.88,0003.99
2023-11-30 16:39:00,SystemResetWarning,0824.3,5.00,000.00,019.8,019.0,000.0,028.0,021.0,13.0,0000.0,0004.44,0008.64,0004.00
2023-11-30 16:40:00,SystemResetWarning,0824.3,5.00,000.00,019.8,019.0,000.0,028.0,021.0,13.1,0000.0,0004.50,0009.11,0004.03
2023-11-30 16:41:00,SystemResetWarning,0824.3,4.99,000.00,019.8,019.0,000.0,028.0,021.0,13.2,0000.0,0004.56,0009.95,0004.06
2023-11-30 16:42:00,SystemResetWarning,0824.3,4.99,000.00,019.8,019.0,000.0,028.0,021.0,12.8,0000.0,0004.63,0010.09,0004.08
2023-11-30 16:43:00,SystemResetWarning,0824.3,5.00,000.00,019.8,019.0,000.0,028.0,021.0,12.9,0000.0,0004.70,0010.38,0004.11
2023-11-30 16:44:00,SystemResetWarning,0824.3,5.01,000.00,019.8,019.0,000.0,028.0,021.0,12.5,0000.0,0004.76,0010.73,0004.13
2023-11-30 16:45:00,SystemResetWarning,0824.3,5.01,000.00,019.8,019.1,000.0,028.1,021.0,12.3,0000.0,0004.81,0010.90,0004.16
2023-11-30 16:46:00,SystemResetWarning,0824.3,5.00,000.00,019.8,019.1,000.0,028.1,021.0,12.5,0000.0,0004.88,0010.94,0004.20
2023-11-30 16:47:00,SystemResetWarning,0824.3,4.99,000.00,019.8,019.1,000.0,028.1,021.0,12.6,0000.0,0004.89,0010.84,0004.21
2023-11-30 16:48:00,SystemResetWarning,0824.3,4.99,000.00,019.8,019.1,000.0,028.1,021.0,12.8,0000.0,0004.92,0010.60,0004.25
2023-11-30 16:49:00,SystemResetWarning,0824.3,5.01,000.00,019.8,019.1,000.0,028.1,021.0,12.9,0000.0,0004.98,0010.48,0004.30
2023-11-30 16:50:00,SystemResetWarning,0824.3,5.01,000.00,019.8,019.1,000.0,028.1,021.1,12.8,0000.0,0004.99,0010.44,0004.33
2023-11-30 16:51:00,SystemResetWarning,0824.2,4.99,000.00,019.8,019.1,000.0,028.1,021.1,12.9,0000.0,0004.97,0010.19,0004.35
2023-11-30 16:52:00,SystemResetWarning,0824.2,4.99,000.00,019.8,019.1,000.0,028.1,021.1,12.8,0000.0,0004.98,0009.98,0004.36
2023-11-30 16:53:00,SystemResetWarning,0824.3,5.01,000.00,019.8,019.1,000.0,028.1,021.1,12.7,0000.0,0004.96,0010.07,0004.39
2023-11-30 16:54:00,SystemResetWarning,0824.3,5.01,000.00,019.8,019.1,000.0,028.1,021.1,12.5,0000.0,0004.95,0010.12,0004.40
2023-11-30 16:55:00,SystemResetWarning,0824.3,5.00,000.00,019.9,019.1,000.0,028.1,021.1,12.7,0000.0,0004.96,0010.47,0004.43
2023-11-30 16:56:00,SystemResetWarning,0824.3,5.00,000.00,019.9,019.1,000.0,028.1,021.1,12.4,0000.0,0004.97,0010.33,0004.46
2023-11-30 16:57:00,SystemResetWarning,0824.3,5.00,000.00,019.9,019.2,000.0,028.1,021.1,12.1,0000.0,0004.97,0010.27,0004.48
2023-11-30 16:58:00,SystemResetWarning,0824.3,4.99,000.00,019.9,019.2,000.0,028.1,021.1,12.4,0000.0,0005.00,0010.28,0004.51
2023-11-30 16:59:00,SystemResetWarning,0824.3,4.99,000.00,019.9,019.2,000.0,028.1,021.1,12.3,0000.0,0005.01,0010.26,0004.53
